Marion, SC

4:40 AM EDT on October 24, 2017 (GMT -0400)
Marion County

Weather History for KMAO - May, 2013

Change the Weather History Date:

Tuesday, May 7, 2013

  Actual Average (KFLO) Record (KFLO)
Temperature  
Mean Temperature 60 °F -  
Max Temperature 68 °F 81 °F 97 °F (1977)
Min Temperature 51 °F 56 °F 41 °F (1989)
Degree Days  
Heating Degree Days 6    
Growing Degree Days 10 (Base 50)    
Moisture  
Dew Point 54 °F    
Average Humidity 85    
Maximum Humidity 100    
Minimum Humidity 59    
Precipitation  
Precipitation 0.04 in - - ()
Sea Level Pressure  
Sea Level Pressure 29.93 in    
Wind  
Wind Speed 3 mph (SSW)    
Max Wind Speed 10 mph    
Max Gust Speed -    
Visibility 10 miles    
Events Rain , Thunderstorm    
Averages and records for this station are not official NWS values.
T = Trace of Precipitation, MM = Missing Value Source: NWS Daily Summary

Daily Weather History Graph

Daily Weather History Graph

Search for Another Location

Airport or City:

Trip Planner

Search our weather history database for the weather conditions in past years. The results will help you decide how hot, cold, wet, or windy it might be!

Date:

Astronomy

May. 07, 2013 Rise Set
Actual Time 6:21 AM EDT 8:06 PM EDT
Civil Twilight 5:54 AM EDT 8:33 PM EDT
Nautical Twilight 5:21 AM EDT 9:06 PM EDT
Astronomical Twilight 4:47 AM EDT 9:41 PM EDT
Moon 4:49 AM EDT (5/7) 6:08 PM EDT (5/7)
Length of Visible Light 14h 38m
Length of Day
13h 44m
Waning Crescent, 5% of the Moon is Illuminated
May 7
Waning Crescent
May 9
New
May 18
First Quarter
May 25
Full
May 31
Last Quarter

Hourly Weather History & Observations

Time (EDT) Temp. Dew Point Humidity Pressure Visibility Wind Dir Wind Speed Gust Speed Precip Events Conditions
12:15 AM 53.6 °F 53.6 °F 100% 29.90 in 10.0 mi SW 4.6 mph - N/A   Clear
12:35 AM 57.2 °F 51.8 °F 82% 29.91 in 10.0 mi WSW 5.8 mph - N/A   Clear
12:55 AM 55.4 °F 51.8 °F 88% 29.92 in 10.0 mi West 4.6 mph - N/A   Clear
1:15 AM 55.4 °F 51.8 °F 88% 29.92 in 10.0 mi Calm Calm - N/A   Clear
1:35 AM 55.4 °F 51.8 °F 88% 29.92 in 10.0 mi West 3.5 mph - N/A   Clear
1:55 AM 55.4 °F 51.8 °F 88% 29.91 in 10.0 mi Calm Calm - N/A   Clear
2:15 AM 53.6 °F 53.6 °F 100% 29.91 in 10.0 mi Calm Calm - N/A   Clear
2:35 AM 53.6 °F 53.6 °F 100% 29.90 in 10.0 mi Calm Calm - N/A   Scattered Clouds
2:55 AM 53.6 °F 53.6 °F 100% 29.90 in 10.0 mi Calm Calm - N/A   Mostly Cloudy
3:15 AM 53.6 °F 53.6 °F 100% 29.90 in 10.0 mi Calm Calm - N/A   Scattered Clouds
3:35 AM 53.6 °F 53.6 °F 100% 29.90 in 10.0 mi Calm Calm - N/A   Mostly Cloudy
3:55 AM 53.6 °F 53.6 °F 100% 29.90 in 10.0 mi Calm Calm - N/A   Mostly Cloudy
4:15 AM 53.6 °F 53.6 °F 100% 29.90 in 10.0 mi Calm Calm - N/A   Mostly Cloudy
4:35 AM 53.6 °F 53.6 °F 100% 29.90 in 10.0 mi Calm Calm - N/A   Scattered Clouds
4:55 AM 51.8 °F 51.8 °F 100% 29.90 in 10.0 mi South 3.5 mph - N/A   Mostly Cloudy
5:15 AM 51.8 °F 51.8 °F 100% 29.89 in 10.0 mi Calm Calm - N/A   Scattered Clouds
5:35 AM 53.6 °F 53.6 °F 100% 29.89 in 10.0 mi SSW 3.5 mph - N/A   Clear
5:55 AM 53.6 °F 53.6 °F 100% 29.90 in 10.0 mi Calm Calm - N/A   Scattered Clouds
6:15 AM 53.6 °F 53.6 °F 100% 29.90 in 10.0 mi Calm Calm - N/A   Scattered Clouds
6:35 AM 53.6 °F 53.6 °F 100% 29.91 in 10.0 mi Calm Calm - N/A   Scattered Clouds
6:55 AM 53.6 °F 53.6 °F 100% 29.91 in 10.0 mi Calm Calm - N/A   Mostly Cloudy
7:15 AM 53.6 °F 53.6 °F 100% 29.92 in 10.0 mi Calm Calm - N/A   Scattered Clouds
7:35 AM 53.6 °F 53.6 °F 100% 29.92 in 10.0 mi Calm Calm - N/A   Scattered Clouds
7:55 AM 55.4 °F 55.4 °F 100% 29.94 in 10.0 mi Calm Calm - N/A   Mostly Cloudy
8:15 AM 55.4 °F 55.4 °F 100% 29.94 in 10.0 mi WSW 3.5 mph - N/A   Scattered Clouds
8:35 AM 59.0 °F 55.4 °F 88% 29.95 in 10.0 mi Calm Calm - N/A   Scattered Clouds
8:55 AM 60.8 °F 51.8 °F 72% 29.95 in 10.0 mi West 3.5 mph - N/A   Scattered Clouds
9:15 AM 62.6 °F 50.0 °F 63% 29.95 in 10.0 mi West 3.5 mph - N/A   Clear
9:35 AM 62.6 °F 50.0 °F 63% 29.95 in 10.0 mi Calm Calm - N/A   Clear
9:55 AM 62.6 °F 50.0 °F 63% 29.95 in 10.0 mi Calm Calm - N/A   Clear
10:15 AM 62.6 °F 50.0 °F 63% 29.96 in 10.0 mi SW 4.6 mph - N/A   Mostly Cloudy
10:35 AM 62.6 °F 51.8 °F 68% 29.96 in 10.0 mi SSW 8.1 mph - N/A   Overcast
10:55 AM 62.6 °F 51.8 °F 68% 29.96 in 10.0 mi SW 5.8 mph - N/A   Scattered Clouds
11:15 AM 62.6 °F 51.8 °F 68% 29.97 in 10.0 mi South 9.2 mph - N/A   Scattered Clouds
11:35 AM 62.6 °F 51.8 °F 68% 29.97 in 10.0 mi SSW 10.4 mph - N/A   Mostly Cloudy
11:55 AM 59.0 °F 53.6 °F 82% 29.98 in 10.0 mi SSW 6.9 mph - N/A Rain Light Rain
12:15 PM 59.0 °F 55.4 °F 88% 29.98 in 10.0 mi SSW 4.6 mph - 0.01 in Rain Light Rain
12:35 PM 60.8 °F 53.6 °F 77% 29.97 in 10.0 mi SW 4.6 mph - 0.01 in Rain Light Rain
12:55 PM 59.0 °F 53.6 °F 82% 29.96 in 10.0 mi SSW 5.8 mph - 0.01 in Rain Light Rain
1:15 PM 60.8 °F 53.6 °F 77% 29.95 in 10.0 mi South 3.5 mph - N/A   Overcast
1:35 PM 62.6 °F 53.6 °F 72% 29.94 in 10.0 mi Calm Calm - N/A   Overcast
1:55 PM 64.4 °F 53.6 °F 68% 29.93 in 10.0 mi SSW 5.8 mph - N/A   Overcast
2:15 PM 68.0 °F 53.6 °F 60% 29.93 in 10.0 mi South 8.1 mph - N/A   Mostly Cloudy
2:35 PM 64.4 °F 50.0 °F 59% 29.93 in 10.0 mi SSW 9.2 mph - N/A   Mostly Cloudy
2:55 PM 62.6 °F 51.8 °F 68% 29.93 in 7.0 mi SW 6.9 mph - N/A Rain Rain
3:15 PM 62.6 °F 55.4 °F 77% 29.93 in 7.0 mi Calm Calm - 0.01 in Rain Rain
3:35 PM 62.6 °F 55.4 °F 77% 29.92 in 10.0 mi Calm Calm - 0.02 in   Overcast
3:55 PM 64.4 °F 55.4 °F 73% 29.92 in 10.0 mi Calm Calm - 0.02 in Rain Light Rain
4:15 PM 62.6 °F 55.4 °F 77% 29.92 in 5.0 mi SW 4.6 mph - 0.01 in Rain Rain
4:35 PM 64.4 °F 57.2 °F 77% 29.91 in 10.0 mi Calm Calm - 0.01 in   Mostly Cloudy
4:55 PM 66.2 °F 55.4 °F 68% 29.91 in 10.0 mi Calm Calm - 0.01 in Thunderstorm Scattered Clouds
5:15 PM 68.0 °F 55.4 °F 64% 29.91 in 10.0 mi Calm Calm - N/A   Clear
5:35 PM 68.0 °F 53.6 °F 60% 29.91 in 10.0 mi Calm Calm - N/A   Scattered Clouds
6:15 PM 66.2 °F 53.6 °F 64% 29.91 in 10.0 mi SSW 3.5 mph - N/A   Scattered Clouds
6:35 PM 68.0 °F 53.6 °F 60% 29.91 in 10.0 mi Calm Calm - N/A   Clear
6:55 PM 66.2 °F 55.4 °F 68% 29.91 in 10.0 mi South 4.6 mph - N/A   Clear
7:15 PM 66.2 °F 53.6 °F 64% 29.92 in 10.0 mi SSW 3.5 mph - N/A   Clear
7:35 PM 66.2 °F 55.4 °F 68% 29.92 in 10.0 mi Calm Calm - N/A   Clear
7:55 PM 62.6 °F 57.2 °F 82% 29.93 in 10.0 mi Calm Calm - N/A   Clear
8:15 PM 60.8 °F 59.0 °F 94% 29.93 in 10.0 mi Calm Calm - N/A   Clear
8:35 PM 57.2 °F 57.2 °F 100% 29.94 in 10.0 mi Calm Calm - N/A   Clear
8:55 PM 59.0 °F 59.0 °F 100% 29.94 in 10.0 mi Calm Calm - N/A   Clear
9:15 PM 55.4 °F 55.4 °F 100% 29.95 in 10.0 mi Calm Calm - N/A   Clear
9:35 PM 57.2 °F 57.2 °F 100% 29.95 in 10.0 mi South 5.8 mph - N/A   Clear
9:55 PM 59.0 °F 59.0 °F 100% 29.96 in 10.0 mi South 5.8 mph - N/A   Clear
10:15 PM 59.0 °F 59.0 °F 100% 29.96 in 10.0 mi South 3.5 mph - N/A   Clear
10:35 PM 59.0 °F 59.0 °F 100% 29.97 in 10.0 mi SSW 3.5 mph - N/A   Clear
10:55 PM 57.2 °F 57.2 °F 100% 29.97 in 10.0 mi SSW 3.5 mph - N/A   Clear
11:15 PM 55.4 °F 55.4 °F 100% 29.97 in 10.0 mi South 3.5 mph - N/A   Scattered Clouds
11:35 PM 55.4 °F 55.4 °F 100% 29.97 in 10.0 mi Calm Calm - N/A   Scattered Clouds
11:55 PM 55.4 °F 55.4 °F 100% 29.97 in 10.0 mi South 4.6 mph - N/A   Scattered Clouds